Mount Airy, NC

12:26 PM EST on December 05, 2019 (GMT -0500)
Mount Airy-Surry County

Weather History for KMWK - November, 2019

Change the Weather History Date:

Sunday, November 17, 2019

  Actual Average (KINT) Record (KINT)
Temperature  
Mean Temperature 46 °F -  
Max Temperature 52 °F 57 °F 77 °F (1991)
Min Temperature 39 °F 39 °F 20 °F (1967)
Degree Days  
Heating Degree Days 20    
Moisture  
Dew Point 37 °F    
Average Humidity 74    
Maximum Humidity 87    
Minimum Humidity 58    
Precipitation  
Precipitation 0.00 in - - ()
Sea Level Pressure  
Sea Level Pressure 30.09 in    
Wind  
Wind Speed 7 mph ()    
Max Wind Speed 13 mph    
Max Gust Speed 17 mph    
Visibility 10.0 miles    
Events      
Averages and records for this station are not official NWS values.
T = Trace of Precipitation, MM = Missing Value Source: Averaged Metar Reports

Daily Weather History Graph

Daily Weather History Graph

Search for Another Location

Airport or City:

Astronomy

Nov. 17, 2019 Rise Set
Actual Time 7:01 AM EST 5:12 PM EST
Civil Twilight 6:33 AM EST 5:40 PM EST
Nautical Twilight 6:02 AM EST 6:11 PM EST
Astronomical Twilight 5:31 AM EST 6:41 PM EST
Moon 9:49 PM EST (11/17) 11:43 AM EST (11/17)
Length of Visible Light 11h 06m
Length of Day
10h 11m
Waning Gibbous, 73% of the Moon is Illuminated
Nov 17
Waning Gibbous
Nov 19
Last Quarter
Nov 26
New
Dec 4
First Quarter
Dec 12
Full

Hourly Weather History & Observations

Time (EST) Temp. Windchill Dew Point Humidity Pressure Visibility Wind Dir Wind Speed Gust Speed Precip Events Conditions
12:15 AM 39.4 °F 34.5 °F 25.9 °F 58% 30.22 in 10.0 mi NNE 6.9 mph - N/A   Overcast
12:35 AM 39.4 °F 32.7 °F 26.1 °F 59% 30.21 in 10.0 mi NNE 10.4 mph - N/A   Overcast
12:55 AM 39.4 °F 35.2 °F 27.0 °F 61% 30.20 in 10.0 mi NNE 5.8 mph - N/A   Mostly Cloudy
1:15 AM 39.4 °F 36.1 °F 27.9 °F 63% 30.19 in 10.0 mi NNE 4.6 mph - N/A   Mostly Cloudy
1:35 AM 39.4 °F 33.8 °F 28.6 °F 65% 30.19 in 10.0 mi NNE 8.1 mph - N/A   Overcast
1:55 AM 39.4 °F 33.8 °F 29.3 °F 67% 30.19 in 10.0 mi NNE 8.1 mph - N/A   Overcast
2:15 AM 39.6 °F 34.0 °F 30.0 °F 69% 30.19 in 10.0 mi North 8.1 mph - N/A   Overcast
2:35 AM 39.7 °F 34.3 °F 30.7 °F 70% 30.18 in 10.0 mi NNE 8.1 mph - N/A   Overcast
2:55 AM 40.1 °F 35.3 °F 31.6 °F 72% 30.18 in 10.0 mi NNE 6.9 mph - N/A   Overcast
3:15 AM 40.1 °F 34.1 °F 32.0 °F 73% 30.17 in 10.0 mi NE 9.2 mph - N/A   Mostly Cloudy
3:35 AM 40.3 °F 35.5 °F 32.0 °F 72% 30.18 in 10.0 mi NNE 6.9 mph - N/A   Overcast
3:55 AM 40.3 °F 34.4 °F 32.4 °F 73% 30.17 in 10.0 mi NE 9.2 mph - N/A   Overcast
4:15 AM 40.6 °F 35.4 °F 33.1 °F 74% 30.17 in 10.0 mi NNE 8.1 mph - N/A   Mostly Cloudy
4:35 AM 41.0 °F 35.2 °F 33.6 °F 75% 30.16 in 10.0 mi NNE 9.2 mph - N/A   Overcast
5:15 AM 40.5 °F 35.8 °F 34.2 °F 78% 30.16 in 10.0 mi NNE 6.9 mph - N/A   Overcast
5:35 AM 40.6 °F 35.4 °F 34.5 °F 79% 30.16 in 10.0 mi NNE 8.1 mph - N/A   Overcast
5:55 AM 40.8 °F 35.6 °F 34.7 °F 79% 30.16 in 10.0 mi NNE 8.1 mph - N/A   Overcast
6:15 AM 40.6 °F 36.7 °F 34.7 °F 79% 30.16 in 10.0 mi NNE 5.8 mph - N/A   Overcast
6:35 AM 41.0 °F 36.4 °F 35.2 °F 80% 30.16 in 10.0 mi North 6.9 mph - N/A   Overcast
6:55 AM 41.4 °F 38.4 °F 35.8 °F 81% 30.16 in 10.0 mi North 4.6 mph - N/A   Overcast
7:15 AM 40.8 °F 38.8 °F 34.9 °F 79% 30.16 in 10.0 mi North 3.5 mph - N/A   Mostly Cloudy
7:35 AM 41.5 °F 39.6 °F 35.6 °F 79% 30.16 in 10.0 mi North 3.5 mph - N/A   Mostly Cloudy
7:55 AM 42.1 °F - 36.3 °F 80% 30.16 in 10.0 mi Calm Calm - N/A   Mostly Cloudy
8:15 AM 42.4 °F 38.8 °F 36.3 °F 79% 30.16 in 10.0 mi NNE 5.8 mph - N/A   Scattered Clouds
8:35 AM 42.8 °F 37.0 °F 36.5 °F 78% 30.16 in 10.0 mi NE 10.4 mph - N/A   Scattered Clouds
8:55 AM 43.9 °F 39.3 °F 36.7 °F 76% 30.16 in 10.0 mi NE 8.1 mph - N/A   Scattered Clouds
9:15 AM 43.7 °F 38.1 °F 36.5 °F 76% 30.15 in 10.0 mi NE 10.4 mph - N/A   Mostly Cloudy
9:35 AM 45.7 °F 43.4 °F 37.4 °F 73% 30.15 in 10.0 mi NE 4.6 mph - N/A   Scattered Clouds
9:55 AM 45.1 °F 40.3 °F 37.0 °F 73% 30.15 in 10.0 mi NNE 9.2 mph - N/A   Mostly Cloudy
10:15 AM 45.1 °F 40.3 °F 37.4 °F 74% 30.16 in 10.0 mi NNE 9.2 mph - N/A   Overcast
10:35 AM 45.7 °F 40.6 °F 37.8 °F 74% 30.15 in 10.0 mi NNE 10.4 mph 16.1 mph N/A   Overcast
10:55 AM 46.6 °F - 38.3 °F 73% 30.14 in 10.0 mi NNE 11.5 mph 17.3 mph N/A   Overcast
11:15 AM 47.3 °F - 38.8 °F 72% 30.14 in 10.0 mi NE 9.2 mph 17.3 mph N/A   Overcast
11:35 AM 48.0 °F - 39.4 °F 72% 30.13 in 10.0 mi NE 10.4 mph - N/A   Overcast
11:55 AM 48.0 °F - 39.4 °F 72% 30.11 in 10.0 mi ENE 12.7 mph - N/A   Overcast
12:15 PM 48.2 °F - 40.1 °F 74% 30.10 in 10.0 mi NE 4.6 mph - N/A   Overcast
12:35 PM 49.3 °F - 40.8 °F 73% 30.08 in 10.0 mi ENE 9.2 mph - N/A   Overcast
12:55 PM 49.6 °F - 40.8 °F 72% 30.07 in 10.0 mi NE 10.4 mph - N/A   Overcast
1:15 PM 50.5 °F - 41.2 °F 70% 30.06 in 10.0 mi NNE 8.1 mph - N/A   Overcast
1:35 PM 50.4 °F - 41.5 °F 72% 30.05 in 10.0 mi NE 8.1 mph - N/A   Mostly Cloudy
1:55 PM 51.4 °F - 41.9 °F 70% 30.04 in 10.0 mi ENE 8.1 mph - N/A   Scattered Clouds
2:15 PM 51.4 °F - 42.1 °F 70% 30.03 in 10.0 mi ENE 8.1 mph - N/A   Clear
2:35 PM 52.0 °F - 42.1 °F 69% 30.02 in 10.0 mi ENE 9.2 mph - N/A   Clear
2:55 PM 52.5 °F - 42.1 °F 68% 30.02 in 10.0 mi ENE 5.8 mph - N/A   Clear
3:15 PM 52.5 °F - 42.1 °F 68% 30.01 in 10.0 mi NE 8.1 mph - N/A   Clear
3:35 PM 52.3 °F - 41.9 °F 68% 30.01 in 10.0 mi East 9.2 mph - N/A   Clear
3:55 PM 52.2 °F - 41.7 °F 68% 30.00 in 10.0 mi East 9.2 mph - N/A   Clear
4:15 PM 51.3 °F - 41.2 °F 68% 30.00 in 10.0 mi East 6.9 mph - N/A   Clear
4:35 PM 50.5 °F - 40.8 °F 69% 29.99 in 10.0 mi East 8.1 mph - N/A   Mostly Cloudy
4:55 PM 49.6 °F - 40.6 °F 71% 29.99 in 10.0 mi East 8.1 mph - N/A   Overcast
5:15 PM 48.2 °F - 40.5 °F 75% 30.00 in 10.0 mi East 6.9 mph - N/A   Overcast
5:35 PM 46.9 °F - 40.1 °F 77% 30.00 in 10.0 mi ESE 5.8 mph - N/A   Mostly Cloudy
5:55 PM 46.4 °F 43.5 °F 39.7 °F 78% 30.00 in 10.0 mi ESE 5.8 mph - N/A   Scattered Clouds
6:15 PM 45.5 °F 42.5 °F 39.4 °F 79% 30.00 in 10.0 mi East 5.8 mph - N/A   Scattered Clouds
6:35 PM 45.5 °F 42.5 °F 39.4 °F 79% 30.00 in 10.0 mi ENE 5.8 mph - N/A   Mostly Cloudy
6:55 PM 45.5 °F 41.8 °F 39.0 °F 78% 30.00 in 10.0 mi ENE 6.9 mph - N/A   Mostly Cloudy
7:15 PM 45.3 °F 42.3 °F 38.5 °F 77% 30.00 in 10.0 mi ENE 5.8 mph - N/A   Mostly Cloudy
7:55 PM 45.0 °F 41.2 °F 38.3 °F 77% 30.00 in 10.0 mi ENE 6.9 mph - N/A   Overcast
8:15 PM 44.8 °F 41.6 °F 38.3 °F 78% 30.00 in 10.0 mi ENE 5.8 mph - N/A   Overcast
8:35 PM 44.8 °F 41.6 °F 38.3 °F 78% 30.00 in 10.0 mi NE 5.8 mph - N/A   Overcast
8:55 PM 44.6 °F 43.1 °F 38.3 °F 79% 30.00 in 10.0 mi East 3.5 mph - N/A   Overcast
9:15 PM 44.6 °F 41.4 °F 38.3 °F 79% 30.00 in 10.0 mi ENE 5.8 mph - N/A   Overcast
9:35 PM 44.2 °F 41.8 °F 38.3 °F 80% 30.00 in 10.0 mi East 4.6 mph - N/A   Overcast
10:15 PM 43.7 °F - 38.3 °F 81% 29.98 in 10.0 mi Calm Calm - N/A   Overcast
10:35 PM 44.1 °F 42.5 °F 38.8 °F 82% 29.97 in 10.0 mi East 3.5 mph - N/A   Overcast
10:55 PM 44.1 °F 40.8 °F 38.8 °F 82% 29.97 in 10.0 mi ENE 5.8 mph - N/A   Overcast
11:15 PM 43.9 °F 41.3 °F 39.2 °F 84% 29.96 in 10.0 mi NE 4.6 mph - N/A   Overcast
11:35 PM 43.7 °F - 39.9 °F 87% 29.95 in 10.0 mi Calm Calm - N/A   Overcast
11:55 PM 43.7 °F - 40.1 °F 87% 29.96 in 10.0 mi Calm Calm - N/A   Overcast